Temp
86 90 93 92 74 73 69 77 89 81 87 95 96 88 84 82 69 64 94 99 96 91 88 86 83 84 84 83 84 84 84 84 84 84 84 84 83 84 84 84 84 84 84 84 85 84 84 84 84
95 99 96 87 75 72 74 85 83 88 93 96 95 90 86 82 92 90 93 98 96 93 90 88 82 83 84 83 84 84 84 84 84 84 84 84 84 84 84 84 84 84 85 85 85 84 84 84 84
90 99 87 80 82 75 76 87 88 92 96 93 91 91 86 84 93 94 98 98 97 93 93 85 83 83 84 84 84 84 84 84 84 84 84 84 84 85 84 84 85 85 84 85 84 84 84 84 83
97 98 92 84 80 85 86 89 93 92 95 97 94 84 93 98 96 97 100 100 97 96 91 84 83 84 84 84 84 84 85 84 84 84 84 84 85 84 84 83 84 85 84 84 85 84 84 84 83
103 94 72 82 83 89 93 85 95 91 92 93 92 83 86 97 100 100 100 100 97 93 89 86 83 84 84 84 84 84 85 85 84 85 85 84 84 85 85 85 85 85 85 84 84 84 84 84 84
93 93 81 75 81 90 94 83 94 93 93 93 89 86 86 98 97 99 101 100 98 92 91 87 84 84 84 84 84 84 84 84 84 85 85 85 85 84 84 85 84 84 84 85 84 84 84 83 84
92 87 83 85 84 86 92 89 78 92 91 91 95 82 88 93 99 101 102 102 99 95 91 88 87 85 84 84 84 84 85 85 84 84 85 85 84 84 84 85 84 84 84 84 83 84 84 83 84
100 94 84 84 83 83 95 97 97 90 91 101 97 82 83 93 99 102 102 101 99 95 92 87 86 86 85 86 85 85 85 84 84 84 84 84 84 84 84 83 84 84 84 84 85 84 84 84 83
106 86 80 83 85 87 91 77 83 71 81 97 99 94 95 98 100 99 98 98 96 95 93 93 90 89 89 88 86 84 84 84 84 84 84 84 86 85 84 82 84 85 85 85 84 84 84 84 84
96 84 88 95 97 93 87 80 71 69 72 88 92 96 97 98 97 95 95 93 95 93 94 95 94 92 92 93 84 85 86 86 85 85 82 82 80 81 79 81 84 85 85 85 85 85 84 84 85
98 89 96 96 97 100 81 79 83 80 74 91 88 91 95 95 95 95 95 95 94 94 95 95 94 92 95 87 86 88 88 87 86 85 81 81 77 77 82 82 83 82 84 84 85 82 83 84 84
92 98 98 98 100 99 95 78 78 76 94 99 96 95 95 94 95 96 95 95 94 93 96 97 96 90 92 91 92 93 90 88 79 77 82 80 77 78 76 77 79 79 78 78 79 75 78 79 81
96 98 101 102 101 100 100 96 91 75 99 100 98 96 95 95 96 98 98 98 95 93 95 96 94 90 91 91 90 91 92 88 87 83 86 80 78 77 76 77 77 80 81 80 77 77 79 81 81
98 99 100 101 100 100 96 96 93 88 100 97 96 95 97 96 96 97 97 96 95 94 95 97 95 90 91 89 89 87 90 91 89 88 84 82 80 76 77 75 75 77 77 80 78 78 76 78 82
99 93 97 99 99 97 97 75 79 98 99 96 96 96 98 97 97 96 97 96 96 95 95 95 94 93 88 88 88 88 89 93 88 87 88 85 84 82 77 75 75 77 80 79 76 78 76 75 81
94 94 85 96 97 98 91 62 76 90 98 89 94 96 96 97 97 97 92 97 92 80 75 75 89 88 89 88 88 89 89 89 88 84 85 86 84 83 79 79 81 80 79 79 79 79 73 74 76
91 82 83 87 99 96 95 79 86 99 98 78 89 94 95 95 98 97 98 96 93 81 76 77 83 84 80 80 88 89 88 85 88 87 89 86 85 84 81 82 80 79 79 76 76 74 74 73 76
77 81 81 85 93 94 91 85 89 95 99 91 76 69 92 94 96 98 96 95 95 83 74 78 82 85 85 81 84 86 83 85 88 88 86 90 85 84 80 81 81 80 81 79 79 76 75 77 74
87 84 82 85 95 91 89 88 87 93 97 91 77 66 74 78 97 100 99 97 90 85 80 80 81 83 83 84 83 84 83 83 88 82 88 86 87 86 82 79 80 80 79 78 78 77 76 74 73
89 86 87 89 93 91 89 89 94 96 96 97 82 72 70 76 87 97 98 99 97 89 84 83 85 85 84 86 86 86 82 85 82 84 87 86 86 86 85 80 82 81 80 79 77 77 74 75 75
88 87 86 80 84 93 89 85 88 95 96 98 99 86 80 83 96 97 96 97 97 94 91 88 86 86 85 86 85 87 83 83 83 85 84 86 86 85 82 83 82 81 80 78 77 75 75 72 74
82 93 91 88 85 77 90 70 81 73 71 90 97 98 99 99 100 100 97 97 97 95 93 90 90 88 88 88 86 83 80 79 83 85 86 86 85 84 84 84 84 83 81 79 78 77 75 74 72
86 93 89 90 86 84 84 77 82 83 71 75 93 97 100 101 101 99 94 97 98 95 93 90 88 87 87 86 85 83 81 81 87 86 83 84 84 85 86 87 84 81 82 79 77 75 75 75 73
97 86 90 89 86 74 83 79 76 77 67 70 91 98 100 102 101 102 101 100 95 95 93 90 86 84 86 86 86 85 83 81 79 79 83 83 85 82 80 84 82 82 81 80 77 76 75 75 75
93 87 74 71 72 68 79 70 80 88 91 95 95 98 99 102 101 100 98 97 93 92 92 90 86 83 86 86 86 85 85 86 84 84 84 83 83 84 81 81 81 81 79 79 78 77 75 75 74
88 87 75 64 53 59 77 62 73 95 99 99 100 100 100 100 100 99 97 95 94 92 91 89 85 84 85 86 84 86 86 85 83 82 84 84 83 83 82 81 82 81 81 79 79 78 76 74 75
84 81 92 78 72 68 76 82 88 95 95 96 97 97 97 98 99 98 98 96 95 92 90 89 86 85 86 87 84 84 86 87 84 85 84 83 82 84 82 82 81 81 81 81 79 78 77 76 75
90 92 80 81 61 59 72 75 73 85 89 94 95 95 97 97 98 98 98 96 95 95 93 91 88 86 87 86 86 86 86 87 86 86 85 85 84 84 83 82 81 81 80 79 80 78 78 77 77
87 84 80 85 81 71 69 73 85 79 88 92 95 97 97 97 97 98 97 97 96 95 92 91 89 88 86 87 84 83 86 87 87 86 85 85 85 84 82 81 80 79 79 79 77 79 78 76 77
94 88 87 78 73 81 79 72 91 90 95 97 96 97 99 98 99 97 96 95 93 91 91 89 88 90 90 86 84 81 84 88 87 88 88 86 86 84 81 81 80 79 78 78 77 77 76 75 75
MSLP
1005.56 1005.22 1004.96 1003.94 1003.79 1003.04 1002.24 1001.45 1000.73 1000.72 1000.15 1000.74 1001.20 1002.05 1003.01 1004.31 1005.60 1007.23 1007.52 1007.81 1009.21 1010.74 1011.92 1012.47 1012.94 1013.30 1013.62 1014.01 1014.37 1014.63 1014.89 1015.05 1015.27 1015.43 1015.61 1015.82 1016.02 1016.04 1016.15 1016.22 1016.33 1016.44 1016.68 1016.64 1016.86 1017.01 1017.05 1017.18 1017.25
1004.77 1003.93 1003.38 1002.91 1001.56 1001.14 1001.14 1000.92 1000.70 1000.51 1000.51 1000.89 1001.55 1002.49 1003.35 1004.03 1004.99 1006.28 1006.89 1008.17 1009.38 1010.59 1011.72 1012.52 1013.17 1013.48 1013.83 1014.19 1014.47 1014.78 1014.97 1015.24 1015.44 1015.60 1015.81 1016.03 1016.16 1016.24 1016.31 1016.42 1016.65 1016.78 1016.77 1016.92 1017.06 1017.17 1017.31 1017.43 1017.52
1004.94 1003.49 1002.68 1001.02 1000.45 1000.45 1000.58 1000.21 1000.06 1000.37 1000.15 1000.70 1001.47 1002.81 1004.01 1005.00 1005.76 1006.13 1007.40 1008.49 1009.46 1010.59 1011.19 1012.73 1013.36 1013.73 1014.01 1014.29 1014.60 1014.90 1015.16 1015.34 1015.56 1015.73 1015.91 1016.12 1016.26 1016.43 1016.51 1016.70 1016.82 1016.97 1017.10 1017.16 1017.32 1017.36 1017.50 1017.71 1017.84
1003.18 1001.94 1001.55 1000.01 1000.11 1000.18 1000.04 1000.24 999.60 1000.02 1000.43 1000.87 1001.40 1003.36 1004.47 1005.19 1005.66 1006.78 1007.68 1008.54 1009.56 1010.29 1011.60 1012.99 1013.50 1013.88 1014.19 1014.47 1014.77 1015.09 1015.29 1015.46 1015.67 1015.87 1016.01 1016.18 1016.37 1016.58 1016.83 1017.01 1017.12 1017.19 1017.36 1017.44 1017.53 1017.66 1017.78 1017.91 1018.03
1002.11 1001.87 1000.81 999.85 1000.08 1000.00 999.96 1001.07 1000.34 1000.16 1000.84 1001.27 1002.31 1003.99 1004.70 1005.32 1006.22 1007.15 1007.69 1008.51 1009.24 1010.63 1012.11 1013.09 1013.66 1014.01 1014.36 1014.67 1014.97 1015.22 1015.34 1015.58 1015.84 1016.04 1016.16 1016.32 1016.48 1016.67 1016.91 1017.03 1017.18 1017.36 1017.50 1017.67 1017.77 1017.91 1018.08 1018.16 1018.27
1000.93 1000.23 999.70 1000.42 1000.22 1000.03 999.95 1001.15 1000.44 1000.60 1001.31 1001.90 1002.90 1004.21 1005.15 1005.65 1006.52 1007.19 1007.59 1008.31 1009.25 1010.87 1012.01 1013.14 1013.81 1014.18 1014.55 1014.86 1015.15 1015.38 1015.58 1015.85 1016.07 1016.21 1016.32 1016.43 1016.63 1016.83 1016.97 1017.11 1017.34 1017.47 1017.60 1017.77 1017.97 1018.09 1018.26 1018.35 1018.35
999.64 999.31 999.51 999.62 999.92 1000.20 1000.04 1001.31 1002.29 1001.47 1001.79 1001.89 1002.78 1004.29 1005.44 1005.93 1006.50 1006.90 1007.34 1007.99 1009.22 1010.64 1012.03 1013.18 1013.74 1014.27 1014.70 1015.04 1015.32 1015.56 1015.73 1015.99 1016.23 1016.34 1016.40 1016.45 1016.62 1016.84 1016.97 1017.08 1017.27 1017.40 1017.58 1017.75 1017.98 1018.11 1018.25 1018.40 1018.40
998.73 998.99 999.34 1000.05 999.93 1000.36 1000.44 1001.09 1001.57 1003.46 1002.84 1002.06 1002.73 1004.06 1005.09 1005.81 1006.36 1006.73 1007.25 1007.93 1009.05 1010.56 1011.93 1012.89 1013.59 1014.15 1014.61 1015.04 1015.36 1015.56 1015.81 1016.06 1016.28 1016.40 1016.52 1016.62 1016.65 1016.78 1016.91 1017.00 1017.15 1017.31 1017.42 1017.56 1017.72 1017.92 1018.06 1018.26 1018.35
999.07 999.76 999.40 999.77 999.79 1000.41 1001.69 1004.17 1005.21 1006.80 1004.98 1002.14 1002.06 1003.09 1004.46 1005.81 1006.25 1006.67 1007.27 1008.12 1009.16 1010.35 1011.42 1012.11 1013.08 1013.66 1013.83 1014.43 1015.15 1015.55 1015.79 1016.03 1016.33 1016.51 1016.56 1016.53 1016.27 1016.51 1016.75 1016.97 1017.06 1017.23 1017.36 1017.45 1017.61 1017.77 1017.87 1017.96 1018.10
999.14 999.37 999.06 999.42 999.36 1000.03 1002.66 1005.82 1006.82 1007.39 1005.05 1003.89 1002.88 1003.91 1004.83 1005.62 1006.22 1006.68 1007.28 1008.25 1008.97 1009.95 1010.78 1011.38 1012.16 1012.77 1012.98 1013.28 1014.52 1014.95 1015.31 1015.82 1016.14 1016.25 1016.56 1016.42 1016.20 1016.42 1016.76 1016.97 1017.01 1017.09 1017.18 1017.29 1017.40 1017.59 1017.76 1017.84 1017.68
998.75 998.78 998.87 999.31 1000.01 999.98 1002.71 1004.40 1005.05 1005.70 1004.79 1002.58 1003.07 1004.04 1004.82 1005.59 1006.17 1006.68 1007.28 1008.13 1008.82 1009.58 1010.04 1010.54 1011.19 1011.79 1012.05 1013.25 1013.83 1013.98 1014.36 1014.99 1015.16 1015.43 1015.96 1016.22 1016.21 1016.39 1016.38 1016.50 1016.60 1016.86 1017.05 1017.08 1016.95 1017.28 1017.28 1017.23 1017.14
998.88 998.87 999.03 999.14 999.56 999.78 1000.35 1003.19 1003.59 1002.56 1001.81 1002.26 1003.06 1003.81 1004.64 1005.33 1005.91 1006.42 1007.01 1007.80 1008.66 1009.55 1009.81 1010.09 1010.87 1011.55 1011.85 1012.50 1012.64 1012.79 1013.29 1014.20 1014.75 1015.20 1015.35 1015.52 1015.49 1015.91 1016.23 1016.45 1016.59 1016.80 1016.97 1016.90 1017.11 1017.25 1017.24 1017.17 1016.85
998.56 998.37 998.43 998.42 998.71 999.35 1000.03 1000.55 1002.64 1003.12 1001.47 1002.17 1002.91 1003.59 1004.24 1004.76 1005.45 1006.03 1006.65 1007.35 1008.37 1009.36 1009.80 1010.12 1010.69 1011.43 1011.88 1012.30 1012.45 1012.59 1012.48 1013.41 1013.65 1014.39 1014.88 1015.05 1015.28 1015.75 1015.92 1016.24 1016.31 1016.37 1016.30 1016.45 1016.67 1016.86 1016.79 1016.51 1016.59
999.08 998.77 998.30 998.42 998.39 998.90 999.84 1000.26 1000.85 1001.81 1001.28 1002.24 1002.87 1002.99 1003.27 1003.98 1004.75 1005.61 1006.26 1006.93 1007.99 1008.96 1009.59 1010.18 1010.87 1011.53 1011.99 1012.58 1012.77 1012.94 1012.66 1012.73 1012.99 1013.59 1014.16 1014.56 1015.00 1015.26 1015.44 1015.77 1015.75 1015.97 1015.98 1016.08 1016.15 1016.34 1016.33 1016.37 1015.94
999.04 998.85 998.32 998.21 998.36 998.77 999.95 1001.85 1002.25 1001.06 1001.66 1002.65 1003.16 1003.21 1002.76 1003.33 1004.49 1005.18 1006.01 1006.84 1007.67 1008.93 1009.45 1009.91 1010.99 1011.52 1012.29 1012.88 1013.01 1013.13 1013.00 1012.64 1012.77 1013.14 1013.43 1013.86 1014.13 1014.41 1014.79 1015.17 1015.36 1015.43 1015.46 1015.70 1015.96 1015.86 1016.13 1016.18 1015.72
998.90 998.81 998.15 998.18 998.58 998.79 1000.23 1002.92 1001.86 1002.04 1001.47 1002.45 1003.36 1003.76 1004.06 1003.81 1004.37 1005.17 1006.26 1006.61 1008.32 1009.94 1010.55 1011.50 1011.12 1011.72 1012.16 1012.37 1012.97 1012.89 1012.90 1012.67 1012.72 1012.95 1013.31 1013.39 1013.53 1013.85 1014.32 1014.79 1014.77 1014.68 1014.93 1015.05 1015.36 1015.55 1015.80 1015.82 1015.56
998.71 998.30 998.54 998.67 998.29 998.78 998.91 1001.00 1001.42 1000.57 1001.10 1003.48 1003.58 1003.74 1003.81 1004.25 1004.40 1005.13 1005.83 1006.53 1007.69 1010.22 1011.88 1011.89 1011.92 1011.82 1012.02 1012.06 1012.31 1012.63 1012.60 1012.67 1012.52 1012.56 1012.55 1012.56 1012.97 1013.27 1013.64 1014.06 1014.21 1014.26 1014.43 1014.75 1014.80 1014.99 1015.01 1015.16 1015.27
999.80 999.25 999.03 998.25 998.16 998.57 998.78 999.83 999.82 1000.04 1000.47 1002.41 1003.72 1006.90 1004.74 1004.06 1003.99 1004.79 1005.91 1006.45 1007.39 1009.73 1010.10 1011.13 1011.50 1011.76 1011.63 1012.35 1012.27 1012.48 1012.68 1012.46 1011.91 1011.91 1012.08 1012.12 1012.61 1012.67 1013.30 1013.49 1013.67 1013.61 1014.27 1014.42 1014.38 1014.45 1014.60 1014.78 1014.68
999.58 999.40 999.21 998.80 998.17 998.59 998.66 999.08 999.60 999.71 1000.33 1001.69 1003.54 1005.44 1006.18 1005.23 1003.48 1003.99 1005.17 1005.94 1007.31 1008.90 1009.54 1010.39 1011.26 1011.60 1011.86 1011.83 1012.07 1012.33 1012.27 1011.91 1011.79 1012.10 1012.19 1012.50 1012.52 1012.69 1012.95 1013.73 1013.62 1013.47 1013.84 1013.78 1013.62 1013.74 1014.01 1014.27 1014.43
999.00 998.50 997.97 998.22 998.51 998.73 998.48 998.37 998.60 999.02 999.95 1000.89 1002.46 1004.90 1005.03 1003.82 1003.67 1003.54 1004.69 1005.38 1006.40 1008.04 1009.13 1010.11 1010.41 1010.79 1011.23 1011.50 1011.91 1011.77 1011.80 1011.93 1011.82 1012.35 1012.31 1012.69 1012.85 1012.87 1012.96 1013.39 1013.52 1013.40 1013.44 1013.35 1013.27 1013.28 1013.43 1013.45 1013.66
998.32 997.79 998.02 998.95 999.31 998.37 998.39 998.39 998.75 999.35 1000.03 1000.51 1000.72 1002.04 1002.20 1001.73 1002.06 1002.99 1004.25 1005.00 1005.96 1007.01 1007.99 1008.93 1009.64 1010.25 1010.99 1011.28 1011.63 1011.65 1011.83 1012.09 1012.37 1012.36 1012.51 1012.72 1012.92 1013.03 1013.22 1013.08 1013.24 1013.35 1013.31 1013.11 1012.88 1012.84 1012.96 1012.84 1012.45
997.93 997.69 997.89 998.20 998.39 997.92 998.28 998.68 999.67 1001.10 1002.70 1001.10 1000.50 1000.26 1000.32 1000.50 1001.43 1002.15 1003.27 1004.49 1005.55 1006.66 1007.82 1008.67 1009.29 1010.04 1010.75 1011.28 1011.54 1012.00 1012.21 1012.31 1012.14 1012.06 1012.10 1012.55 1012.36 1012.38 1012.34 1012.30 1012.41 1012.66 1012.71 1012.61 1012.39 1012.31 1012.12 1012.05 1012.03
997.42 998.21 998.34 998.04 997.94 997.95 998.18 999.09 999.38 1001.75 1003.13 1001.65 1000.30 1000.00 999.82 999.79 1000.63 1001.78 1002.83 1003.95 1004.96 1006.42 1007.87 1008.94 1009.60 1010.22 1010.62 1011.23 1011.72 1011.96 1012.27 1012.41 1011.91 1012.01 1012.09 1011.97 1012.04 1011.68 1011.46 1011.66 1012.17 1012.28 1012.36 1012.26 1012.11 1011.85 1011.51 1011.31 1011.30
997.20 999.04 998.25 998.19 998.08 997.89 997.22 998.63 999.34 1001.02 1001.06 1001.46 1000.20 999.13 999.34 999.23 1000.20 1001.26 1002.18 1003.60 1004.93 1006.35 1007.68 1008.83 1009.78 1010.46 1010.89 1011.17 1011.57 1012.04 1012.42 1012.61 1012.44 1012.56 1012.31 1012.08 1011.68 1011.49 1012.09 1011.95 1012.17 1012.15 1012.17 1012.01 1011.89 1011.59 1011.16 1010.69 1010.49
997.00 997.12 997.39 997.83 997.93 999.25 999.73 999.82 998.94 998.92 998.73 998.29 998.40 998.43 998.95 999.37 1000.23 1001.40 1002.56 1003.78 1005.15 1006.43 1007.54 1008.75 1009.75 1010.41 1010.68 1010.96 1011.21 1011.56 1012.04 1012.17 1012.31 1012.32 1012.20 1012.19 1011.99 1011.87 1012.03 1012.21 1012.17 1012.17 1012.16 1011.88 1011.64 1011.27 1010.88 1010.27 1009.95
996.60 996.80 996.91 997.56 1000.54 1001.18 1001.37 1000.14 999.65 997.81 997.47 997.74 997.46 997.99 998.88 999.55 1000.44 1001.63 1003.00 1004.29 1005.35 1006.44 1007.53 1008.57 1009.74 1010.37 1010.82 1011.06 1011.32 1011.69 1011.98 1012.16 1012.32 1012.46 1012.35 1012.55 1012.32 1012.39 1012.60 1012.59 1012.35 1012.15 1011.88 1011.69 1011.41 1011.04 1010.79 1010.47 1009.87
996.58 996.53 996.62 997.08 1000.74 1001.22 999.66 999.02 998.48 997.44 997.45 997.65 997.32 997.77 998.88 999.86 1000.68 1001.82 1003.06 1004.33 1005.42 1006.41 1007.50 1008.54 1009.63 1010.30 1010.65 1010.93 1011.49 1011.86 1012.11 1012.19 1012.36 1012.48 1012.61 1012.75 1012.72 1012.77 1012.86 1012.80 1012.49 1012.06 1011.69 1011.38 1011.15 1010.85 1010.63 1010.55 1010.33
996.31 996.91 996.57 996.87 998.59 999.30 998.38 998.42 998.44 998.25 997.96 997.67 997.66 998.20 998.93 1000.00 1001.02 1001.92 1002.91 1004.10 1005.31 1006.34 1007.39 1008.29 1009.41 1010.06 1010.34 1010.91 1011.41 1011.86 1012.06 1012.17 1012.37 1012.46 1012.69 1012.83 1012.90 1013.00 1012.88 1012.73 1012.48 1012.13 1011.76 1011.44 1011.06 1010.78 1010.52 1010.50 1010.38
995.90 996.16 997.16 996.72 996.90 996.85 997.35 998.29 998.89 998.78 997.93 997.82 997.85 998.48 999.23 1000.18 1001.19 1002.07 1003.11 1004.29 1005.41 1006.35 1007.45 1008.33 1009.17 1009.70 1010.16 1010.66 1011.22 1011.55 1011.76 1012.08 1012.43 1012.49 1012.65 1012.76 1012.88 1012.88 1012.74 1012.69 1012.59 1012.36 1012.01 1011.64 1011.27 1010.77 1010.57 1010.54 1010.35
995.06 995.34 995.88 995.55 996.34 996.39 997.10 999.47 1000.00 1000.14 998.60 997.84 998.00 998.74 999.22 1000.24 1001.28 1002.36 1003.48 1004.67 1005.80 1006.75 1007.58 1008.30 1008.77 1009.21 1009.89 1010.62 1011.19 1011.62 1011.61 1011.79 1012.11 1012.30 1012.37 1012.52 1012.67 1012.88 1012.81 1012.62 1012.60 1012.43 1012.17 1011.77 1011.49 1011.23 1011.03 1010.83 1010.52
Wind_Speed
11 12 9 7 4 6 0 9 12 9 12 12 12 12 19 17 10 3 20 18 23 20 17 15 13 14 14 14 12 11 11 11 11 12 11 11 10 11 10 9 11 11 12 12 11 11 12 11 11
12 14 5 6 3 9 9 11 12 11 11 10 16 13 19 16 17 21 17 23 22 20 16 15 14 15 15 14 13 11 11 10 10 11 11 11 10 10 11 11 12 10 10 11 12 12 11 10 9
14 16 6 5 8 10 11 7 12 10 7 13 8 15 9 21 21 19 21 23 23 18 17 17 15 14 15 14 13 11 9 9 12 11 11 10 10 9 10 9 9 10 10 9 11 10 11 10 9
9 6 7 5 13 14 9 14 12 14 13 6 20 15 16 18 17 22 22 22 20 19 19 17 15 15 15 13 13 11 9 10 12 11 11 9 10 9 10 10 9 9 8 7 8 8 10 10 8
11 4 6 14 12 10 5 29 14 15 13 19 22 18 16 14 24 21 21 20 19 21 18 16 14 14 14 13 12 9 10 11 11 10 9 9 8 8 8 8 8 8 7 6 5 5 8 6 7
6 6 2 13 3 11 10 21 10 19 16 17 19 17 13 18 20 19 19 18 24 19 17 16 15 13 13 12 11 8 11 10 8 6 7 8 8 7 7 7 6 6 5 6 5 5 5 6 5
14 9 7 12 12 10 11 27 16 20 12 9 20 17 14 19 19 18 18 18 22 19 17 13 14 13 13 12 11 8 9 9 7 6 4 4 8 7 6 5 5 5 5 4 5 6 5 6 5
6 8 20 18 8 7 11 7 23 22 6 14 18 12 18 20 19 17 17 18 20 19 16 14 11 13 11 10 11 11 7 7 6 5 5 5 6 6 6 5 5 2 2 4 6 6 6 7 6
4 5 9 9 10 3 14 23 16 33 20 10 16 19 22 21 20 17 16 17 15 16 15 16 15 12 11 12 11 10 9 8 8 7 7 7 6 7 6 4 3 3 4 6 6 8 9 9 9
5 6 8 6 9 12 31 19 22 13 18 4 21 21 21 21 18 17 16 16 15 17 16 16 16 15 13 12 13 11 10 8 7 8 8 6 3 3 4 5 6 8 9 10 10 11 10 9 7
6 6 3 10 8 12 36 23 18 6 11 15 19 20 20 19 17 16 15 16 13 12 11 14 13 13 11 11 10 7 7 7 6 3 7 4 4 3 4 4 4 2 5 5 7 7 5 9 8
6 3 3 2 5 4 9 21 18 28 19 18 19 19 18 17 15 15 15 16 15 11 10 12 12 8 7 10 7 8 9 8 6 9 10 7 4 4 4 2 3 2 5 6 3 2 6 9 8
9 2 5 6 7 6 1 1 15 23 19 19 19 18 17 16 15 15 14 16 14 13 10 7 11 7 3 1 1 4 2 10 12 11 11 6 4 3 4 3 3 5 6 5 5 6 7 5 6
8 6 9 2 7 3 6 10 9 21 19 18 18 18 17 18 16 15 14 15 13 13 12 12 8 8 5 3 3 5 3 4 4 6 7 8 6 5 4 5 4 6 5 5 4 4 4 4 6
4 12 13 9 3 1 13 21 29 6 15 13 14 12 14 18 16 15 12 14 13 11 12 9 10 13 9 6 5 4 6 7 3 5 10 10 9 5 6 6 6 5 5 6 3 6 4 5 6
11 12 12 5 3 8 14 13 38 28 13 18 7 9 9 13 19 15 15 14 14 18 15 14 5 4 11 9 6 6 7 5 1 3 6 9 10 9 6 5 5 7 6 6 6 6 3 5 4
13 11 6 13 10 4 12 11 26 14 10 26 20 10 12 9 12 15 18 14 19 21 16 17 5 4 8 5 6 7 5 4 5 4 6 8 9 11 7 6 6 6 5 5 5 5 5 5 6
12 14 17 13 8 2 5 12 8 18 7 17 17 10 9 13 11 13 16 12 13 20 21 15 5 4 6 9 5 5 3 6 5 5 2 5 1 3 7 5 6 6 6 6 7 7 7 6 6
17 14 22 19 7 3 11 10 19 18 3 16 19 21 15 23 9 15 12 17 16 17 12 9 10 8 6 5 5 5 7 5 3 6 3 5 5 3 1 4 6 6 5 8 6 6 9 8 5
18 12 9 8 6 7 9 6 12 9 6 6 25 27 19 17 15 14 11 11 11 21 19 16 14 10 6 3 5 3 3 7 2 1 3 3 3 3 3 5 6 7 5 6 8 9 8 8 7
14 14 5 8 14 9 10 11 5 1 1 7 7 27 18 21 15 17 15 13 12 10 11 13 13 9 8 6 4 1 4 2 2 3 3 3 2 3 5 6 4 5 5 6 6 7 10 9 8
21 16 5 12 10 10 8 10 14 15 11 16 8 8 16 17 13 16 17 15 14 12 10 10 8 9 8 6 3 4 3 3 4 3 3 1 6 7 7 5 4 3 4 6 6 7 9 10 9
8 6 9 17 10 16 14 10 6 13 6 21 10 10 9 15 14 13 13 14 15 14 10 8 8 8 7 7 4 2 3 5 3 3 4 6 4 7 7 2 4 5 6 6 7 9 8 8 9
14 17 15 14 13 14 15 12 10 10 19 30 20 12 8 10 17 11 17 15 16 12 12 11 10 8 6 7 6 3 3 3 4 5 4 4 2 1 6 6 4 5 6 7 7 7 10 9 9
18 16 9 12 13 5 16 10 7 17 17 7 11 9 11 7 13 11 12 11 14 13 12 10 10 8 7 6 6 5 4 2 2 2 3 6 4 6 7 7 7 6 7 7 6 8 9 8 7
22 15 14 12 7 14 6 7 6 12 10 7 8 13 12 9 13 14 12 11 10 13 12 12 10 8 7 6 6 4 3 3 1 5 4 4 4 5 7 6 5 7 7 7 6 6 5 9 5
8 14 18 13 3 12 15 11 18 12 8 7 10 17 13 10 11 15 15 13 11 11 12 12 10 8 7 7 6 5 2 1 4 4 4 5 6 5 6 6 8 8 8 5 5 5 4 5 6
17 16 11 11 11 7 15 7 9 8 6 4 10 15 15 14 11 12 11 14 12 12 11 11 10 8 8 10 7 6 4 2 2 1 3 3 3 3 3 4 6 7 7 10 7 5 4 4 4
16 13 6 18 14 6 6 9 5 3 5 9 8 13 16 15 11 13 12 11 11 11 10 11 10 10 9 8 6 6 4 5 3 3 4 3 3 4 5 5 7 8 9 9 10 7 6 7 6
17 20 23 16 12 12 8 10 14 3 5 9 10 10 18 16 13 12 14 12 11 9 10 11 10 10 8 8 6 4 3 2 4 2 2 4 1 4 6 5 6 8 8 8 8 9 9 10 8
Wind_Direction
213 208 214 262 244 137 142 57 88 46 64 65 83 84 70 116 116 187 145 136 131 134 132 138 133 128 127 128 126 122 124 111 104 104 102 103 105 110 107 99 104 104 107 101 105 105 104 107 103
246 261 236 278 293 70 78 78 61 66 74 123 80 65 66 85 108 129 139 129 131 132 146 136 138 133 132 134 133 132 124 117 105 107 99 101 102 99 97 95 97 99 99 101 107 111 107 103 104
251 257 275 243 46 65 60 51 113 96 33 83 102 82 89 105 125 131 129 128 133 141 135 128 139 137 135 136 133 129 130 122 112 110 112 107 102 101 91 90 96 95 98 106 103 103 107 110 109
250 230 262 51 61 68 92 57 111 119 111 49 106 81 82 110 113 121 135 133 130 135 117 131 137 140 140 140 130 140 141 115 116 111 113 118 110 106 103 103 113 100 92 92 106 122 104 110 110
246 275 283 78 56 72 82 21 72 83 58 59 81 93 99 99 116 133 137 134 145 109 124 133 138 143 143 143 142 150 133 117 108 111 112 108 103 112 114 114 114 115 114 116 122 119 123 132 127
269 241 258 101 121 60 46 157 18 95 102 114 101 102 106 113 133 144 140 142 117 122 134 137 141 139 144 147 146 148 124 115 118 121 130 127 123 116 104 105 111 123 135 143 148 159 169 162 154
228 248 64 107 91 67 54 106 230 75 88 102 109 119 128 134 139 149 141 142 120 132 127 137 145 147 150 153 154 156 141 140 142 132 140 147 140 130 121 121 129 136 149 168 172 183 197 198 185
298 334 60 7 69 83 75 74 60 32 71 113 134 136 146 142 149 152 143 133 133 132 141 149 143 154 159 162 165 156 159 147 144 162 153 136 130 137 147 165 144 150 193 201 203 212 212 206 212
28 302 134 179 105 119 92 359 43 335 327 91 76 141 134 147 151 154 149 133 135 136 152 150 157 165 176 162 168 171 179 184 185 191 188 186 208 176 163 192 184 226 241 239 229 232 229 216 223
223 234 45 357 10 88 77 91 103 157 277 90 97 109 135 154 155 156 156 141 155 142 162 156 163 165 185 167 152 181 184 184 190 201 184 216 133 137 177 230 256 254 255 257 244 235 236 239 242
5 90 40 88 357 357 109 133 91 258 274 105 121 131 145 152 161 162 161 156 159 156 180 157 170 164 175 138 172 183 185 183 180 231 180 156 158 190 217 232 217 229 256 255 243 225 230 228 224
255 203 183 107 125 328 341 169 122 198 95 113 125 135 143 157 167 168 167 161 152 176 185 166 147 151 181 169 183 192 164 179 174 203 201 169 186 205 225 224 256 199 221 249 231 214 236 252 265
264 316 237 144 174 272 91 90 109 303 102 116 127 135 148 159 169 167 173 157 154 171 182 186 145 134 170 59 196 242 224 160 187 189 193 173 182 206 174 226 226 228 225 203 231 205 236 244 232
309 287 276 238 108 151 308 31 107 232 104 124 141 155 163 158 165 161 175 155 171 170 173 177 169 141 164 213 258 306 309 322 139 158 156 177 188 194 204 198 222 241 227 217 195 241 247 275 239
250 264 251 194 149 114 59 15 319 88 136 142 149 178 153 146 151 166 161 155 166 176 141 170 180 159 170 197 215 238 286 217 270 174 166 182 192 182 182 196 224 219 222 232 192 229 252 244 267
238 246 267 120 226 109 111 173 251 270 169 97 207 159 149 147 161 139 158 164 117 97 51 319 223 108 164 181 201 226 215 270 213 145 178 197 184 192 186 214 227 206 211 202 216 238 203 248 228
229 232 114 219 214 270 231 167 227 218 178 143 218 163 153 180 154 162 164 166 148 135 159 211 238 143 129 317 197 215 242 229 237 208 227 196 207 196 184 201 223 238 198 213 212 211 230 217 229
266 291 324 273 129 242 307 152 141 274 214 141 113 286 179 172 183 150 163 156 172 139 164 204 173 187 172 201 210 212 253 241 220 229 317 336 311 190 204 233 231 224 227 209 223 208 215 237 224
262 199 205 233 91 252 284 153 173 221 194 139 140 105 353 300 186 161 179 158 152 152 162 178 188 185 216 196 187 206 211 223 229 335 63 355 348 320 261 283 299 273 241 245 245 229 220 215 201
241 258 263 48 340 245 262 240 206 157 198 226 160 152 185 215 242 142 178 185 173 155 169 179 191 190 196 175 224 267 210 226 109 61 52 349 328 2 354 10 320 329 313 264 260 250 246 241 197
252 257 112 132 244 248 259 261 299 337 18 219 231 159 173 188 160 161 173 187 173 158 159 171 180 172 169 240 200 197 348 25 84 197 190 190 287 296 289 240 255 280 288 285 274 262 244 238 228
275 232 357 204 240 256 197 261 237 100 219 267 210 194 185 148 158 184 164 177 167 152 150 158 167 150 163 182 182 231 240 260 207 229 129 189 210 233 226 220 243 293 287 290 289 282 260 249 236
231 43 246 284 258 260 205 249 151 128 28 328 260 198 227 147 157 140 160 167 154 141 143 137 158 155 166 164 254 160 264 271 243 258 131 224 196 233 230 187 22 332 318 330 334 313 275 249 236
221 181 238 255 252 256 243 204 171 164 169 215 235 197 196 158 141 160 136 141 129 142 142 145 151 157 184 180 176 201 273 286 342 353 319 311 311 54 45 18 348 327 327 328 320 318 295 261 243
237 251 238 238 229 58 39 28 282 165 196 173 158 180 152 142 122 116 111 113 128 141 143 141 145 159 171 169 168 165 191 216 260 241 350 343 341 26 29 16 346 334 317 316 327 314 334 305 262
226 231 246 240 66 308 133 209 248 183 132 149 151 146 146 138 125 133 123 121 140 143 153 143 149 149 159 174 143 127 139 223 33 52 19 323 20 18 28 354 341 335 322 323 324 316 344 336 345
262 260 255 264 194 252 251 255 234 134 135 156 157 142 147 148 123 133 144 142 155 150 152 143 154 158 170 155 112 106 157 35 49 39 7 23 33 1 14 346 343 343 335 318 322 321 344 346 347
211 251 252 273 169 221 230 131 131 132 164 182 158 151 149 135 146 137 148 146 146 155 152 147 150 167 170 134 139 156 152 71 103 108 64 46 46 6 329 339 341 342 344 346 333 325 3 334 322
222 232 267 261 272 292 248 115 81 88 324 158 167 165 153 141 160 143 132 122 141 136 145 144 165 158 163 129 167 128 173 116 240 153 122 101 52 336 336 15 357 350 347 344 344 346 347 335 328
236 217 214 239 216 255 278 146 39 328 261 159 170 180 155 145 157 136 131 133 126 133 142 163 184 142 131 131 120 172 128 106 127 30 35 85 44 346 347 25 3 349 339 334 333 15 5 354 341